Home > Weather > Teresina > Past weeks

Flag for Brazil Past Weather in Teresina, Piauí, Brazil — Yesterday and Last 2 Weeks

Now
77 °F

Sunny.


Feels Like: 78 °F
Forecast: 76 / 91 °F
Wind: 2 mph from Southwest

Location: Teresina Aeroporto

Current Time: May 27, 2016 at 7:22:52 AM

Latest Report: May 27, 2016 at 7:00 AM


Visibility: 10 mi

Pressure: 29.95 "Hg

Humidity: 94%

Dew Point: 75 °F

Location of TeresinaLocation

Past Weather in Teresina — Graph

°F

Teresina Temperature Yesterday

Maximum temperature yesterday: 90 °F (at 3:00 PM)
Minimum temperature yesterday: 77 °F (at 3:00 AM)
Average temperature yesterday: 82 °F

High & Low Weather Summary for the Past Weeks

 TemperatureHumidityPressure
High93 °F (May 13, 3:00 PM)94% (May 13, 1:00 AM)30.01 "Hg (May 13, 1:00 AM)
Low75 °F (May 14, 9:00 PM)41% (May 17, 2:00 PM)29.80 "Hg (May 17, 4:00 PM)
Average84 °F75%29.91 "Hg
* Reported May 12 6:00 AM — May 27 6:00 AM, Teresina, Weather by CustomWeather, © 2016

Note: Actual official high and low records may vary slightly from our data, if they occured in-between our weather recording intervals... More about our weather records

Advertising

Teresina Weather History for the Previous 24 Hours

Scroll right to see more
 ConditionsComfort  
Time TempWeatherWind HumidityBarometerVisibility
6:00 AM
Fri, May 27
77 °FSunny.No wind94%29.92 "Hg10 mi
5:00 AM77 °FClear.2 mph94%29.92 "Hg10 mi
4:00 AM77 °FClear.No wind94%29.89 "Hg10 mi
3:00 AM77 °FClear.2 mph94%29.89 "Hg10 mi
2:00 AM77 °FClear.3 mph89%29.89 "Hg10 mi
1:00 AM79 °FClear.3 mph84%29.92 "Hg10 mi
12:00 AM79 °FPassing clouds.3 mph84%29.92 "HgN/A
11:00 PM
Thu, May 26
79 °FPassing clouds.6 mph89%29.92 "HgN/A
10:00 PM79 °FClear.No wind84%29.92 "Hg10 mi
9:00 PM81 °FClear.No wind79%29.92 "Hg10 mi
8:00 PM81 °FClear.No wind79%29.89 "Hg10 mi
7:00 PM84 °FClear.No wind70%29.86 "Hg10 mi
6:00 PM86 °FClear.6 mph66%29.86 "Hg10 mi
5:00 PM90 °FSunny.2 mph52%29.83 "Hg10 mi
4:00 PM88 °FSunny.8 mph55%29.83 "Hg10 mi
3:00 PM90 °FSunny.5 mph55%29.83 "Hg10 mi
2:00 PM88 °FSunny.6 mph55%29.86 "Hg10 mi
1:00 PM88 °FScattered clouds.6 mph59%29.89 "HgN/A
12:00 PM86 °FBroken clouds.7 mph62%29.92 "HgN/A
11:00 AM86 °FScattered clouds.6 mph62%29.92 "HgN/A
10:00 AM84 °FBroken clouds.9 mph66%29.95 "HgN/A
9:00 AM82 °FScattered clouds.2 mph74%29.95 "HgN/A
8:00 AM82 °FBroken clouds.8 mph70%29.95 "HgN/A
7:00 AM79 °FPartly sunny.No wind84%29.92 "HgN/A
Weather by CustomWeather, © 2016

See weather overviewHow to use our weather pages